Regional Weather Roundup
Issued by NWS New Orleans/Baton Rouge, LA

Home | Current Version | Previous Version | Text Only | Print | Product List | Glossary On
Versions: 1 2 3 4 5 6 7 8 9 10 11 12 13 14 15 16 17 18 19 20 21 22 23 24 25 26 27 28 29 30 31 32 33 34 35 36 37 38 39 40 41 42 43 44 45 46 47 48 49 50
000
ASUS44 KLIX 040011
RWRLIX
NEW ORLEANS REGIONAL WEATHER ROUNDUP
NATIONAL WEATHER SERVICE NEW ORLEANS LA
700 PM CDT THU SEP 03 2015

NOTE: "FAIR" INDICATES FEW OR NO CLOUDS BELOW 12,000 FEET WITH NO
      SIGNIFICANT WEATHER AND/OR OBSTRUCTIONS TO VISIBILITY.
      SKY/WX - SKY CONDITION AND SIGNIFICANT WEATHER.
      TMP - AIR TEMPERATURE.     DP    - DEWPOINT TEMPERATURE.
      RH  - RELATIVE HUMIDITY.   PRES  - PRESSURE.
      HI  - HEAT INDEX.          WCI   - WIND CHILL INDEX.

*  THESE STATIONS ARE NOT NWS OR FAA STATIONS AND ARE NOT UNDER
   NWS QUALITY CONTROL.

LAZ038-040-048-061>063-065>067-069-040100-
SOUTHEAST LOUISIANA

CITY           SKY/WX    TMP DP  RH WIND       PRES   REMARKS
N.O. AUDUBON     N/A     82  78  89 MISG        N/A
6HR MIN TEMP:  78; 6HR MAX TEMP:  88; 6HR PCP:  0.39;

N.O. INTL ARPT MOCLDY    82  74  76 SE5       29.90F
6HR MIN TEMP:  81; 6HR MAX TEMP:  86; 6HR PCP: TRACE;

N.O. LAKEFRONT MOCLDY    82  73  74 SE7       29.91F
6HR MIN TEMP:  82; 6HR MAX TEMP:  86;

N.O. DOWNTOWN* MOCLDY    82  75  78 SE3       29.92S
6HR MIN TEMP:  82; 6HR MAX TEMP:  86;

RESERVE*         N/A     83  75  76 SE5       29.91R
SLIDELL        PTCLDY    82  76  81 S5        29.91S
6HR MIN TEMP:  82; 6HR MAX TEMP:  86; 6HR PCP: TRACE;

BATON ROUGE    PTCLDY    86  72  62 E7        29.89F
6HR MIN TEMP:  86; 6HR MAX TEMP:  93;

BOOTHVILLE     PTCLDY    81  75  82 S6        29.93R
6HR MIN TEMP:  79; 6HR MAX TEMP:  82;

BELLE CHASSE   MOCLDY    82  75  79 S6        29.91S
6HR MIN TEMP:  81; 6HR MAX TEMP:  83; 6HR PCP: TRACE;

BOGALUSA*      NOT AVBL
GALLIANO*      MOCLDY    83  74  73 S5        29.91S
6HR MIN TEMP:  83; 6HR MAX TEMP:  89;

NEW ROADS*       N/A     84  73  67 E3        29.90S
6HR MIN TEMP:  84; 6HR MAX TEMP:  92;

GONZALES*        N/A     82  75  79 S3        29.89S
6HR MIN TEMP:  75; 6HR MAX TEMP:  87; 6HR PCP:  0.14;

HAMMOND*       PTCLDY    82  72  69 SE7       29.92S
HOUMA*         NOT AVBL
PORT FOURCHON* CLEAR     82  73  74 S9        29.92S

$$

MSZ070-080>082-040100-
SOUTHERN MISSISSIPPI

CITY           SKY/WX    TMP DP  RH WIND       PRES   REMARKS
MCCOMB         CLEAR     83  72  69 S6        29.92S
6HR MIN TEMP:  79; 6HR MAX TEMP:  95; 6HR PCP:  0.11;

GULFPORT       PTCLDY    81  73  76 VRB5      29.91S
6HR MIN TEMP:  81; 6HR MAX TEMP:  86; 6HR PCP: TRACE;

BILOXI         PTCLDY    81  74  80 W5        29.92R
6HR MIN TEMP:  81; 6HR MAX TEMP:  88;

PASCAGOULA     MOCLDY    81  75  82 CALM      29.92S
6HR MIN TEMP:  81; 6HR MAX TEMP:  89;

STENNIS ARPT*  PTCLDY    81  70  69 S3        29.92S

$$

COASTAL OBSERVATIONS
LAKE AND NEARSHORE STATIONS

STATION/POSITION TIME  TEMP    WIND        PRES    WAVE
                       AIR SEA DIR/SP/G            HT/PER
                 (UTC) (F)     (DEG/KT/KT) (MB)    (FT/S)
PASCAGOULA       2300   83     260/  5/  9 1012.8
WAVELAND YACHT   2300   81 87  230/  5/  8 1013.6
GRAND ISLE       2300   82 85  200/  4/  6 1013.0
SOUTHWEST PASS   2300   81 86  200/  4/  5 1013.5
NEW CANAL        2300   83 85  200/  5/  7 1012.2
SHELL BEACH      2300   80 85  150/  6/  8 1012.5

OFFSHORE STATIONS

STATION/POSITION TIME  TEMP    WIND        PRES    WAVE
                       AIR SEA DIR/SP/G            HT/PER
                 (UTC) (F)     (DEG/KT/KT) (MB)    (FT/S)
64 S DAUPHIN ISL 2350   79 84  220/  2/  4 1013.8    2/ 4

$$




USA.gov is the U.S. government's official web portal to all federal, state and local government web resources and services.